{"data":{"norad_id":48797,"intl_designator":"2021-045AG","name":"ONEWEB-0236","alt_names":[],"object_type":"PAYLOAD","status":"ACTIVE","operator":null,"country":"UK","launch_date":"2021-05-28","launch_site_code":"VOSTO","launch_vehicle":null,"mission":null,"orbit_class":"UNKNOWN","rcs_meters":null,"size_class":null,"mass_kg":null,"dimensions":null,"purposes":["comms"],"wikipedia_slug":null,"has_3d_model":false,"image_url":null,"decayed_at":null,"tle_current":{"epoch":"2026-09-19T08:02:07.190880Z","epoch_age_seconds":122588,"freshness":"FRESH","line1":"1 48797U 21045AG  26262.33480545  .00000120  00000+0  28537-3 0  9997","line2":"2 48797  87.8993 240.4313 0001879  85.9454 274.1892 13.15548191256631","mean_motion":13.15548191,"eccentricity":0.0001879,"inclination_deg":87.8993,"raan_deg":240.4313,"arg_perigee_deg":85.9454,"mean_anomaly_deg":274.1892,"bstar":0.00028537,"rev_number":25663,"period_min":109.46007222323,"perigee_km":1200.3478815204,"apogee_km":1203.1964113776,"semimajor_km":7579.909146449,"source":"CELESTRAK","updated_at":"2026-09-20T09:00:44.621526Z"}}}